This demonstration page uses our WeatherBlox Daily Observations layout. Learn more.

Left ArrowRight Arrow

39.51506, -84.39828

Hourly Observations for April 2, 2018

Temp ( °F °C ) Dew Point ( °F °C ) Humidity (%) Winds ( mph kmh ) Pressure ( in mb ) Visibility ( mi km ) Precip ( " mm )
12:15 am 00:15 Cloudy with Light Snow 33 0.3 32 -0.1 97 97 NNE 5 7 30.15 1021 2 2 0.02 0.51
12:35 am 00:35 Cloudy with Snow 32 0.2 32 -0.1 98 98 NE 5 7 30.15 1021 1 2 0.04 1.02
12:55 am 00:55 Cloudy with Light Snow 33 0.3 32 -0.1 97 97 NNE 3 6 30.15 1021 5 8 0.04 1.02
1:15 am 01:15 Cloudy with Light Wintry Mix 33 0.4 32 -0.2 96 96 NNE 6 9 30.12 1020 10 16 0.00 0.00
1:35 am 01:35 Cloudy with Light Snow 33 0.4 31 -0.3 95 95 N 6 9 30.12 1020 7 11 0.00 0.00
1:55 am 01:55 Cloudy with Light Snow 33 0.4 31 -0.3 95 95 N 7 11 30.15 1021 10 16 0.00 0.00
2:15 am 02:15 Cloudy with Light Snow 33 0.4 31 -0.5 94 94 NNE 6 9 30.15 1021 10 16 0.00 0.00
2:35 am 02:35 Cloudy 33 0.4 31 -0.5 94 94 N 6 9 30.15 1021 10 16 0.00 0.00
2:55 am 02:55 Cloudy 33 0.4 31 -0.7 92 92 N 6 9 30.12 1020 10 16 0.00 0.00
3:15 am 03:15 Cloudy 33 0.3 31 -0.6 94 94 N 5 7 30.15 1021 10 16 0.00 0.00
3:35 am 03:35 Cloudy 33 0.3 31 -0.6 94 94 NNE 7 11 30.12 1020 10 16 0.00 0.00
3:55 am 03:55 Cloudy 33 0.3 31 -0.7 93 93 N 6 9 30.12 1020 10 16 0.00 0.00
4:15 am 04:15 Cloudy 33 0.3 30 -0.9 92 92 N 6 9 30.12 1020 10 16 0.00 0.00
4:35 am 04:35 Cloudy 32 0.2 30 -1.1 91 91 N 8 13 30.12 1020 10 16 0.00 0.00
4:55 am 04:55 Cloudy 32 0.2 30 -1 92 92 N 5 7 30.15 1021 10 16 0.00 0.00
5:15 am 05:15 Cloudy 32 0.1 30 -1.2 91 91 N 8 13 30.15 1021 10 16 0.00 0.00
5:35 am 05:35 Cloudy 32 0 30 -1.2 92 92 N 7 11 30.15 1021 10 16 0.00 0.00
5:55 am 05:55 Cloudy 32 -0.2 30 -1.2 93 93 N 6 9 30.15 1021 10 16 0.00 0.00
6:15 am 06:15 Cloudy 32 -0.2 30 -1.3 92 92 N 7 11 30.15 1021 10 16 0.00 0.00
6:35 am 06:35 Cloudy 32 -0.2 30 -1.3 92 92 N 7 11 30.15 1021 10 16 0.00 0.00
6:55 am 06:55 Cloudy 31 -0.4 29 -1.8 90 90 N 8 13 30.15 1021 10 16 0.00 0.00
7:15 am 07:15 Cloudy 31 -0.3 29 -1.7 90 90 N 3 6 30.18 1022 10 16 0.00 0.00
7:35 am 07:35 Cloudy 31 -0.4 29 -1.9 90 90 NNE 6 9 30.18 1022 10 16 0.00 0.00
7:55 am 07:55 Mostly Cloudy 31 -0.5 28 -2.2 88 88 NNE 7 11 30.18 1022 10 16 0.00 0.00
8:15 am 08:15 Mostly Cloudy 31 -0.7 28 -2.1 90 90 N 5 7 30.21 1023 10 16 0.00 0.00
8:35 am 08:35 Sunny 31 -0.6 28 -2 90 90 NNE 7 11 30.18 1022 10 16 0.00 0.00
8:55 am 08:55 Sunny 31 -0.3 28 -2 88 88 NNE 7 11 30.18 1022 10 16 0.00 0.00
9:15 am 09:15 Sunny 32 0 27 -2.6 83 83 NE 9 15 30.18 1022 10 16 0.00 0.00
9:35 am 09:35 Mostly Cloudy 33 0.3 28 -2.2 84 84 ENE 7 11 30.18 1022 10 16 0.00 0.00
9:55 am 09:55 Partly Cloudy 33 0.4 27 -2.8 79 79 NE 8 13 30.21 1023 10 16 0.00 0.00
10:15 am 10:15 Mostly Cloudy 33 0.6 27 -2.6 79 79 NNE 8 13 30.21 1023 10 16 0.00 0.00
10:35 am 10:35 Mostly Cloudy 34 1 27 -2.7 77 77 NE 7 11 30.21 1023 10 16 0.00 0.00
10:55 am 10:55 Mostly Cloudy 36 2.3 29 -1.7 75 75 ENE 7 11 30.21 1023 10 16 0.00 0.00
11:15 am 11:15 Partly Cloudy 37 2.7 28 -2.1 71 71 E 8 13 30.21 1023 10 16 0.00 0.00
11:35 am 11:35 Partly Cloudy 37 2.9 28 -2.3 69 69 E 9 15 30.18 1022 10 16 0.00 0.00
11:55 am 11:55 Cloudy 38 3.2 29 -1.5 72 72 ENE 9 15 30.18 1022 10 16 0.00 0.00
12:15 pm 12:15 Mostly Cloudy 38 3.4 29 -1.7 70 70 NNE 5 7 30.18 1022 10 16 0.00 0.00
12:35 pm 12:35 Mostly Cloudy 38 3.6 29 -1.6 69 69 NNE 6 9 30.18 1022 10 16 0.00 0.00
12:55 pm 12:55 Mostly Cloudy 39 4 29 -1.8 66 66 ENE 3 6 30.18 1022 10 16 0.00 0.00
1:15 pm 13:15 Mostly Cloudy 40 4.4 30 -1.2 67 67 ESE 7 11 30.18 1022 10 16 0.00 0.00
1:35 pm 13:35 Cloudy 40 4.7 31 -0.8 68 68 SE 6 9 30.18 1022 10 16 0.00 0.00
1:55 pm 13:55 Cloudy 40 4.7 30 -0.9 67 67 E 8 13 30.12 1020 10 16 0.00 0.00
2:15 pm 14:15 Cloudy 41 4.9 31 -0.8 67 67 Calm 30.12 1020 10 16 0.00 0.00
2:35 pm 14:35 Cloudy 43 6 32 0.1 66 66 E 8 13 30.12 1020 10 16 0.00 0.00
2:55 pm 14:55 Cloudy 44 6.7 33 0.3 64 64 SE 9 15 30.09 1019 10 16 0.00 0.00
3:15 pm 15:15 Cloudy 44 6.4 33 0.4 66 66 E 8 13 30.09 1019 10 16 0.00 0.00
3:35 pm 15:35 Cloudy 44 6.5 33 0.3 65 65 ESE 5 7 30.06 1018 10 16 0.00 0.00
3:55 pm 15:55 Cloudy 45 7.2 34 0.9 65 65 SSE 9 15 30.06 1018 10 16 0.00 0.00
4:15 pm 16:15 Cloudy 46 7.6 34 1.1 64 64 SE 9 15 30.06 1018 10 16 0.00 0.00
4:35 pm 16:35 Mostly Cloudy 45 7.3 34 1.3 66 66 SE 8 13 30.06 1018 10 16 0.00 0.00
4:55 pm 16:55 Mostly Cloudy 44 6.7 33 0.8 66 66 E 8 13 30.06 1018 10 16 0.00 0.00
5:15 pm 17:15 Mostly Cloudy 44 6.9 34 1.2 67 67 ESE 8 13 30.03 1017 10 16 0.00 0.00
5:35 pm 17:35 Mostly Cloudy 44 6.8 34 1.2 68 68 SE 9 15 30.03 1017 10 16 0.00 0.00
5:55 pm 17:55 Mostly Cloudy 45 7 35 1.4 68 68 ESE 10 17 30.03 1017 10 16 0.00 0.00
6:15 pm 18:15 Sunny 43 6.2 34 1.2 71 71 SSE 9 15 30.03 1017 10 16 0.00 0.00
6:35 pm 18:35 Cloudy 43 6.2 35 1.6 73 73 SE 9 15 30.03 1017 10 16 0.00 0.00
6:55 pm 18:55 Cloudy 42 5.7 35 1.4 74 74 ESE 9 15 30.03 1017 10 16 0.00 0.00
7:15 pm 19:15 Cloudy 42 5.7 35 1.7 76 76 SE 12 19 30.03 1017 10 16 0.00 0.00
7:35 pm 19:35 Cloudy 43 5.9 35 1.9 76 76 ESE 10 17 30.03 1017 10 16 0.00 0.00
7:55 pm 19:55 Cloudy 42 5.8 36 2 77 77 ESE 13 20 30.00 1016 10 16 0.00 0.00
8:15 pm 20:15 Cloudy 43 5.9 36 2.2 77 77 SE 8 13 30.00 1016 10 16 0.00 0.00
8:35 pm 20:35 Cloudy 42 5.8 36 2.3 78 78 E 7 11 30.00 1016 10 16 0.00 0.00
8:55 pm 20:55 Cloudy 43 6 36 2 76 76 ESE 3 6 30.00 1016 10 16 0.00 0.00
9:15 pm 21:15 Cloudy 43 5.9 37 2.5 79 79 E 10 17 29.97 1015 10 16 0.00 0.00
9:35 pm 21:35 Cloudy 42 5.8 37 2.6 80 80 ESE 7 11 29.97 1015 10 16 0.00 0.00
9:55 pm 21:55 Cloudy 42 5.8 37 2.6 80 80 ESE 3 6 29.97 1015 10 16 0.00 0.00
10:15 pm 22:15 Cloudy 43 6 37 2.7 80 80 SE 6 9 29.97 1015 10 16 0.00 0.00
10:35 pm 22:35 Cloudy 43 6.1 37 2.8 80 80 SE 8 13 29.97 1015 10 16 0.00 0.00
10:55 pm 22:55 Cloudy 43 6.2 37 2.9 80 80 SSE 7 11 29.97 1015 10 16 0.00 0.00
11:15 pm 23:15 Cloudy 43 6.3 37 3 80 80 SE 9 15 29.91 1013 10 16 0.00 0.00
11:35 pm 23:35 Cloudy 44 6.4 38 3.1 80 80 SE 6 9 29.91 1013 10 16 0.00 0.00
11:55 pm 23:55 Cloudy 44 6.6 38 3.2 79 79 ESE 5 7 29.94 1014 10 16 0.00 0.00

Powered by AerisWeather